Time,TemperatureF,DewpointF,PressureIn,WindDirection,WindDirectionDegrees,WindSpeedMPH,WindSpeedGustMPH,Humidity,HourlyPrecipIn,Conditions,Clouds,dailyrainin,SoftwareType,DateUTC
2013-05-14 00:02:00,69.0,35.0,-100.00,SSE,165,5.0,7.0,28,-99.99,,,-99.99,,2013-05-14 05:02:00,
2013-05-14 00:12:00,69.0,35.0,-100.00,SSE,165,5.0,7.0,28,-99.99,,,-99.99,,2013-05-14 05:12:00,
2013-05-14 00:22:00,69.0,35.0,-100.00,SSE,165,5.0,7.0,28,-99.99,,,-99.99,,2013-05-14 05:22:00,
2013-05-14 00:32:00,67.0,34.0,-100.00,SSE,155,6.0,9.0,29,-99.99,,,-99.99,,2013-05-14 05:32:00,
2013-05-14 00:42:00,67.0,34.0,-100.00,SSE,155,6.0,9.0,29,-99.99,,,-99.99,,2013-05-14 05:42:00,
2013-05-14 00:52:00,67.0,34.0,-100.00,SSE,155,6.0,9.0,29,-99.99,,,-99.99,,2013-05-14 05:52:00,
2013-05-14 01:01:00,68.0,34.0,-100.00,SSE,160,8.0,12.0,29,-99.99,,,-99.99,,2013-05-14 06:01:00,
2013-05-14 01:12:00,68.0,34.0,-100.00,SSE,160,8.0,12.0,29,-99.99,,,-99.99,,2013-05-14 06:12:00,
2013-05-14 01:22:00,68.0,34.0,-100.00,SSE,160,8.0,12.0,29,-99.99,,,-99.99,,2013-05-14 06:22:00,
2013-05-14 01:32:00,67.0,34.0,-100.00,South,170,8.0,13.0,30,-99.99,,,-99.99,,2013-05-14 06:32:00,
2013-05-14 01:42:00,67.0,34.0,-100.00,South,170,8.0,13.0,30,-99.99,,,-99.99,,2013-05-14 06:42:00,
2013-05-14 01:52:00,67.0,34.0,-100.00,South,170,8.0,13.0,30,-99.99,,,-99.99,,2013-05-14 06:52:00,
2013-05-14 02:02:00,66.0,34.0,-100.00,South,185,6.0,9.0,30,-99.99,,,-99.99,,2013-05-14 07:02:00,
2013-05-14 02:11:00,66.0,34.0,-100.00,South,185,6.0,9.0,30,-99.99,,,-99.99,,2013-05-14 07:11:00,
2013-05-14 02:21:00,66.0,34.0,-100.00,South,185,6.0,9.0,30,-99.99,,,-99.99,,2013-05-14 07:21:00,
2013-05-14 02:32:00,65.0,34.0,-100.00,South,180,9.0,12.0,31,-99.99,,,-99.99,,2013-05-14 07:32:00,
2013-05-14 02:42:00,65.0,34.0,-100.00,South,180,9.0,12.0,31,-99.99,,,-99.99,,2013-05-14 07:42:00,
2013-05-14 02:52:00,65.0,34.0,-100.00,South,180,9.0,12.0,31,-99.99,,,-99.99,,2013-05-14 07:52:00,
2013-05-14 03:02:00,62.0,33.0,-100.00,South,185,10.0,13.0,34,-99.99,,,-99.99,,2013-05-14 08:02:00,
2013-05-14 03:11:00,62.0,33.0,-100.00,South,185,10.0,13.0,34,-99.99,,,-99.99,,2013-05-14 08:11:00,
2013-05-14 03:21:00,62.0,33.0,-100.00,South,185,10.0,13.0,34,-99.99,,,-99.99,,2013-05-14 08:21:00,
2013-05-14 03:32:00,63.0,35.0,-100.00,South,170,8.0,12.0,35,-99.99,,,-99.99,,2013-05-14 08:32:00,
2013-05-14 03:42:00,63.0,35.0,-100.00,South,170,8.0,12.0,35,-99.99,,,-99.99,,2013-05-14 08:42:00,
2013-05-14 03:52:00,63.0,35.0,-100.00,South,170,8.0,12.0,35,-99.99,,,-99.99,,2013-05-14 08:52:00,
2013-05-14 04:02:00,64.0,36.0,-100.00,South,170,10.0,16.0,35,-99.99,,,-99.99,,2013-05-14 09:02:00,
2013-05-14 04:11:00,64.0,36.0,-100.00,South,170,10.0,16.0,35,-99.99,,,-99.99,,2013-05-14 09:11:00,
2013-05-14 04:22:00,64.0,36.0,-100.00,South,170,10.0,16.0,35,-99.99,,,-99.99,,2013-05-14 09:22:00,
2013-05-14 04:32:00,63.0,37.0,-100.00,SSW,200,7.0,14.0,38,-99.99,,,-99.99,,2013-05-14 09:32:00,
2013-05-14 04:44:00,63.0,37.0,-100.00,SSW,200,7.0,14.0,38,-99.99,,,-99.99,,2013-05-14 09:44:00,
2013-05-14 04:54:00,63.0,37.0,-100.00,SSW,200,7.0,14.0,38,-99.99,,,-99.99,,2013-05-14 09:54:00,
2013-05-14 05:04:00,63.0,38.0,-100.00,SSW,200,8.0,12.0,40,-99.99,,,-99.99,,2013-05-14 10:04:00,
2013-05-14 05:14:00,63.0,38.0,-100.00,SSW,200,8.0,12.0,40,-99.99,,,-99.99,,2013-05-14 10:14:00,
2013-05-14 05:25:00,63.0,38.0,-100.00,SSW,200,8.0,12.0,40,-99.99,,,-99.99,,2013-05-14 10:25:00,
2013-05-14 05:33:00,64.0,41.0,-100.00,WNW,290,3.0,13.0,44,-99.99,,,-99.99,,2013-05-14 10:33:00,
2013-05-14 05:42:00,64.0,41.0,-100.00,WNW,290,3.0,13.0,44,-99.99,,,-99.99,,2013-05-14 10:42:00,
2013-05-14 05:52:00,64.0,41.0,-100.00,WNW,290,3.0,13.0,44,-99.99,,,-99.99,,2013-05-14 10:52:00,
2013-05-14 06:02:00,64.0,42.0,-100.00,North,350,2.0,12.0,46,-99.99,,,-99.99,,2013-05-14 11:02:00,
2013-05-14 06:11:00,64.0,42.0,-100.00,North,350,2.0,12.0,46,-99.99,,,-99.99,,2013-05-14 11:11:00,
2013-05-14 06:22:00,64.0,42.0,-100.00,North,350,2.0,12.0,46,-99.99,,,-99.99,,2013-05-14 11:22:00,
2013-05-14 06:32:00,59.0,46.0,-100.00,West,280,7.0,8.0,61,-99.99,,,-99.99,,2013-05-14 11:32:00,
2013-05-14 06:43:00,59.0,46.0,-100.00,West,280,7.0,8.0,61,-99.99,,,-99.99,,2013-05-14 11:43:00,
2013-05-14 06:53:00,59.0,46.0,-100.00,West,280,7.0,8.0,61,-99.99,,,-99.99,,2013-05-14 11:53:00,
2013-05-14 07:02:00,59.0,57.0,-100.00,WNW,285,18.0,26.0,93,-99.99,,,-99.99,,2013-05-14 12:02:00,
2013-05-14 07:12:00,59.0,57.0,-100.00,WNW,285,18.0,26.0,93,-99.99,,,-99.99,,2013-05-14 12:12:00,
2013-05-14 07:21:00,59.0,57.0,-100.00,WNW,285,18.0,26.0,93,-99.99,,,-99.99,,2013-05-14 12:21:00,
2013-05-14 07:32:00,59.0,59.0,-100.00,SE,130,11.0,19.0,99,-99.99,,,-99.99,,2013-05-14 12:32:00,
2013-05-14 07:42:00,59.0,59.0,-100.00,SE,130,11.0,19.0,99,-99.99,,,-99.99,,2013-05-14 12:42:00,
2013-05-14 07:52:00,59.0,59.0,-100.00,SE,130,11.0,19.0,99,-99.99,,,-99.99,,2013-05-14 12:52:00,
2013-05-14 08:01:00,60.0,59.0,-100.00,NNE,20,7.0,12.0,99,-99.99,,,-99.99,,2013-05-14 13:01:00,
2013-05-14 08:11:00,60.0,59.0,-100.00,NNE,20,7.0,12.0,99,-99.99,,,-99.99,,2013-05-14 13:11:00,
2013-05-14 08:22:00,60.0,59.0,-100.00,NNE,20,7.0,12.0,99,-99.99,,,-99.99,,2013-05-14 13:22:00,
2013-05-14 08:32:00,61.0,61.0,-100.00,NE,45,7.0,11.0,99,-99.99,,,-99.99,,2013-05-14 13:32:00,
2013-05-14 08:42:00,61.0,61.0,-100.00,NE,45,7.0,11.0,99,-99.99,,,-99.99,,2013-05-14 13:42:00,
2013-05-14 08:52:00,61.0,61.0,-100.00,NE,45,7.0,11.0,99,-99.99,,,-99.99,,2013-05-14 13:52:00,
2013-05-14 09:01:00,63.0,62.0,-100.00,East,80,7.0,11.0,95,-99.99,,,-99.99,,2013-05-14 14:01:00,
2013-05-14 09:11:00,63.0,62.0,-100.00,East,80,7.0,11.0,95,-99.99,,,-99.99,,2013-05-14 14:11:00,
2013-05-14 09:22:00,63.0,62.0,-100.00,East,80,7.0,11.0,95,-99.99,,,-99.99,,2013-05-14 14:22:00,
2013-05-14 09:32:00,65.0,62.0,-100.00,ESE,105,6.0,12.0,91,-99.99,,,-99.99,,2013-05-14 14:32:00,
2013-05-14 09:42:00,65.0,62.0,-100.00,ESE,105,6.0,12.0,91,-99.99,,,-99.99,,2013-05-14 14:42:00,
2013-05-14 09:52:00,65.0,62.0,-100.00,ESE,105,6.0,12.0,91,-99.99,,,-99.99,,2013-05-14 14:52:00,
2013-05-14 10:01:00,67.0,61.0,-100.00,SE,125,10.0,17.0,81,-99.99,,,-99.99,,2013-05-14 15:01:00,
2013-05-14 10:12:00,67.0,61.0,-100.00,SE,125,10.0,17.0,81,-99.99,,,-99.99,,2013-05-14 15:12:00,
2013-05-14 10:22:00,67.0,61.0,-100.00,SE,125,10.0,17.0,81,-99.99,,,-99.99,,2013-05-14 15:22:00,
2013-05-14 10:33:00,67.0,56.0,-100.00,SSE,160,14.0,21.0,68,-99.99,,,-99.99,,2013-05-14 15:33:00,
2013-05-14 10:43:00,67.0,56.0,-100.00,SSE,160,14.0,21.0,68,-99.99,,,-99.99,,2013-05-14 15:43:00,
2013-05-14 10:53:00,67.0,56.0,-100.00,SSE,160,14.0,21.0,68,-99.99,,,-99.99,,2013-05-14 15:53:00,
2013-05-14 11:02:00,70.0,57.0,-100.00,South,175,13.0,22.0,64,-99.99,,,-99.99,,2013-05-14 16:02:00,
2013-05-14 11:12:00,70.0,57.0,-100.00,South,175,13.0,22.0,64,-99.99,,,-99.99,,2013-05-14 16:12:00,
2013-05-14 11:23:00,70.0,57.0,-100.00,South,175,13.0,22.0,64,-99.99,,,-99.99,,2013-05-14 16:23:00,
2013-05-14 11:33:00,72.0,59.0,-100.00,South,190,12.0,21.0,64,-99.99,,,-99.99,,2013-05-14 16:33:00,
2013-05-14 11:44:00,72.0,59.0,-100.00,South,190,12.0,21.0,64,-99.99,,,-99.99,,2013-05-14 16:44:00,
2013-05-14 11:54:00,72.0,59.0,-100.00,South,190,12.0,21.0,64,-99.99,,,-99.99,,2013-05-14 16:54:00,
2013-05-14 12:03:00,73.0,58.0,-100.00,SSW,205,15.0,25.0,59,-99.99,,,-99.99,,2013-05-14 17:03:00,
2013-05-14 12:13:00,73.0,58.0,-100.00,SSW,205,15.0,25.0,59,-99.99,,,-99.99,,2013-05-14 17:13:00,
2013-05-14 12:24:00,73.0,58.0,-100.00,SSW,205,15.0,25.0,59,-99.99,,,-99.99,,2013-05-14 17:24:00,
2013-05-14 12:33:00,76.0,58.0,-100.00,SW,235,22.0,32.0,55,-99.99,,,-99.99,,2013-05-14 17:33:00,
2013-05-14 12:43:00,76.0,58.0,-100.00,SW,235,22.0,32.0,55,-99.99,,,-99.99,,2013-05-14 17:43:00,
2013-05-14 12:52:00,76.0,58.0,-100.00,SW,235,22.0,32.0,55,-99.99,,,-99.99,,2013-05-14 17:52:00,
2013-05-14 13:02:00,76.0,58.0,-100.00,WSW,240,24.0,32.0,54,-99.99,,,-99.99,,2013-05-14 18:02:00,
2013-05-14 13:12:00,76.0,58.0,-100.00,WSW,240,24.0,32.0,54,-99.99,,,-99.99,,2013-05-14 18:12:00,
2013-05-14 13:22:00,76.0,58.0,-100.00,WSW,240,24.0,32.0,54,-99.99,,,-99.99,,2013-05-14 18:22:00,
2013-05-14 13:32:00,75.0,56.0,-100.00,West,275,34.0,44.0,52,-99.99,,,-99.99,,2013-05-14 18:32:00,
2013-05-14 13:42:00,75.0,56.0,-100.00,West,275,34.0,44.0,52,-99.99,,,-99.99,,2013-05-14 18:42:00,
2013-05-14 13:52:00,75.0,56.0,-100.00,West,275,34.0,44.0,52,-99.99,,,-99.99,,2013-05-14 18:52:00,
2013-05-14 14:01:00,75.0,49.0,-100.00,West,265,32.0,45.0,40,-99.99,,,-99.99,,2013-05-14 19:01:00,
2013-05-14 14:12:00,75.0,49.0,-100.00,West,265,32.0,45.0,40,-99.99,,,-99.99,,2013-05-14 19:12:00,
2013-05-14 14:22:00,75.0,49.0,-100.00,West,265,32.0,45.0,40,-99.99,,,-99.99,,2013-05-14 19:22:00,
2013-05-14 14:32:00,76.0,47.0,-100.00,West,270,31.0,47.0,37,-99.99,,,-99.99,,2013-05-14 19:32:00,
2013-05-14 14:42:00,76.0,47.0,-100.00,West,270,31.0,47.0,37,-99.99,,,-99.99,,2013-05-14 19:42:00,
2013-05-14 14:53:00,76.0,47.0,-100.00,West,270,31.0,47.0,37,-99.99,,,-99.99,,2013-05-14 19:53:00,
2013-05-14 15:02:00,76.0,45.0,-100.00,West,265,34.0,48.0,34,-99.99,,,-99.99,,2013-05-14 20:02:00,
2013-05-14 15:11:00,76.0,45.0,-100.00,West,265,34.0,48.0,34,-99.99,,,-99.99,,2013-05-14 20:11:00,
2013-05-14 15:23:00,76.0,45.0,-100.00,West,265,34.0,48.0,34,-99.99,,,-99.99,,2013-05-14 20:23:00,
2013-05-14 15:33:00,76.0,46.0,-100.00,West,270,35.0,52.0,35,-99.99,,,-99.99,,2013-05-14 20:33:00,
2013-05-14 15:44:00,76.0,46.0,-100.00,West,270,35.0,52.0,35,-99.99,,,-99.99,,2013-05-14 20:44:00,
2013-05-14 15:52:00,76.0,46.0,-100.00,West,270,35.0,52.0,35,-99.99,,,-99.99,,2013-05-14 20:52:00,
2013-05-14 16:03:00,75.0,47.0,-100.00,West,280,33.0,47.0,37,-99.99,,,-99.99,,2013-05-14 21:03:00,
2013-05-14 16:12:00,75.0,47.0,-100.00,West,280,33.0,47.0,37,-99.99,,,-99.99,,2013-05-14 21:12:00,
2013-05-14 16:23:00,75.0,47.0,-100.00,West,280,33.0,47.0,37,-99.99,,,-99.99,,2013-05-14 21:23:00,
2013-05-14 16:33:00,73.0,46.0,-100.00,WNW,290,32.0,52.0,38,-99.99,,,-99.99,,2013-05-14 21:33:00,
2013-05-14 16:43:00,73.0,46.0,-100.00,WNW,290,32.0,52.0,38,-99.99,,,-99.99,,2013-05-14 21:43:00,
2013-05-14 16:53:00,73.0,46.0,-100.00,WNW,290,32.0,52.0,38,-99.99,,,-99.99,,2013-05-14 21:53:00,
2013-05-14 17:03:00,71.0,46.0,-100.00,WNW,290,35.0,52.0,40,-99.99,,,-99.99,,2013-05-14 22:03:00,
2013-05-14 17:13:00,71.0,46.0,-100.00,WNW,290,35.0,52.0,40,-99.99,,,-99.99,,2013-05-14 22:13:00,
2013-05-14 17:24:00,71.0,46.0,-100.00,WNW,290,35.0,52.0,40,-99.99,,,-99.99,,2013-05-14 22:24:00,
2013-05-14 17:34:00,70.0,46.0,-100.00,WNW,295,35.0,46.0,42,-99.99,,,-99.99,,2013-05-14 22:34:00,
2013-05-14 17:45:00,70.0,46.0,-100.00,WNW,295,35.0,46.0,42,-99.99,,,-99.99,,2013-05-14 22:45:00,
2013-05-14 17:54:00,70.0,46.0,-100.00,WNW,295,35.0,46.0,42,-99.99,,,-99.99,,2013-05-14 22:54:00,
2013-05-14 18:03:00,71.0,47.0,-100.00,WNW,285,32.0,43.0,43,-99.99,,,-99.99,,2013-05-14 23:03:00,
2013-05-14 18:12:00,71.0,47.0,-100.00,WNW,285,32.0,43.0,43,-99.99,,,-99.99,,2013-05-14 23:12:00,
2013-05-14 18:21:00,71.0,47.0,-100.00,WNW,285,32.0,43.0,43,-99.99,,,-99.99,,2013-05-14 23:21:00,
2013-05-14 18:32:00,71.0,48.0,-100.00,WNW,295,29.0,40.0,44,-99.99,,,-99.99,,2013-05-14 23:32:00,
2013-05-14 18:44:00,71.0,48.0,-100.00,WNW,295,29.0,40.0,44,-99.99,,,-99.99,,2013-05-14 23:44:00,
2013-05-14 18:53:00,71.0,48.0,-100.00,WNW,295,29.0,40.0,44,-99.99,,,-99.99,,2013-05-14 23:53:00,
2013-05-14 19:02:00,68.0,47.0,-100.00,NNW,335,34.0,45.0,47,-99.99,,,-99.99,,2013-05-15 00:02:00,
2013-05-14 19:11:00,68.0,47.0,-100.00,NNW,335,34.0,45.0,47,-99.99,,,-99.99,,2013-05-15 00:11:00,
2013-05-14 19:21:00,68.0,47.0,-100.00,NNW,335,34.0,45.0,47,-99.99,,,-99.99,,2013-05-15 00:21:00,
2013-05-14 19:32:00,66.0,45.0,-100.00,NNW,330,25.0,40.0,47,-99.99,,,-99.99,,2013-05-15 00:32:00,
2013-05-14 19:42:00,66.0,45.0,-100.00,NNW,330,25.0,40.0,47,-99.99,,,-99.99,,2013-05-15 00:42:00,
2013-05-14 19:52:00,66.0,45.0,-100.00,NNW,330,25.0,40.0,47,-99.99,,,-99.99,,2013-05-15 00:52:00,
2013-05-14 20:01:00,66.0,44.0,-100.00,NW,320,26.0,39.0,45,-99.99,,,-99.99,,2013-05-15 01:01:00,
2013-05-14 20:11:00,66.0,44.0,-100.00,NW,320,26.0,39.0,45,-99.99,,,-99.99,,2013-05-15 01:11:00,
2013-05-14 20:22:00,66.0,44.0,-100.00,NW,320,26.0,39.0,45,-99.99,,,-99.99,,2013-05-15 01:22:00,
2013-05-14 20:32:00,65.0,44.0,-100.00,NW,325,18.0,30.0,47,-99.99,,,-99.99,,2013-05-15 01:32:00,
2013-05-14 20:42:00,65.0,44.0,-100.00,NW,325,18.0,30.0,47,-99.99,,,-99.99,,2013-05-15 01:42:00,
2013-05-14 20:52:00,65.0,44.0,-100.00,NW,325,18.0,30.0,47,-99.99,,,-99.99,,2013-05-15 01:52:00,
2013-05-14 21:02:00,64.0,44.0,-100.00,NNW,335,13.0,21.0,49,-99.99,,,-99.99,,2013-05-15 02:02:00,
2013-05-14 21:11:00,64.0,44.0,-100.00,NNW,335,13.0,21.0,49,-99.99,,,-99.99,,2013-05-15 02:11:00,
2013-05-14 21:21:00,64.0,44.0,-100.00,NNW,335,13.0,21.0,49,-99.99,,,-99.99,,2013-05-15 02:21:00,
2013-05-14 21:32:00,62.0,44.0,-100.00,NNW,340,9.0,14.0,52,-99.99,,,-99.99,,2013-05-15 02:32:00,
2013-05-14 21:42:00,62.0,44.0,-100.00,NNW,340,9.0,14.0,52,-99.99,,,-99.99,,2013-05-15 02:42:00,
2013-05-14 21:52:00,62.0,44.0,-100.00,NNW,340,9.0,14.0,52,-99.99,,,-99.99,,2013-05-15 02:52:00,
2013-05-14 22:01:00,60.0,44.0,-100.00,NNW,340,6.0,7.0,56,-99.99,,,-99.99,,2013-05-15 03:01:00,
2013-05-14 22:12:00,60.0,44.0,-100.00,NNW,340,6.0,7.0,56,-99.99,,,-99.99,,2013-05-15 03:12:00,
2013-05-14 22:22:00,60.0,44.0,-100.00,NNW,340,6.0,7.0,56,-99.99,,,-99.99,,2013-05-15 03:22:00,
2013-05-14 22:33:00,57.0,44.0,-100.00,NNW,330,1.0,4.0,62,-99.99,,,-99.99,,2013-05-15 03:33:00,
2013-05-14 22:44:00,57.0,44.0,-100.00,NNW,330,1.0,4.0,62,-99.99,,,-99.99,,2013-05-15 03:44:00,
2013-05-14 22:54:00,57.0,44.0,-100.00,NNW,330,1.0,4.0,62,-99.99,,,-99.99,,2013-05-15 03:54:00,
2013-05-14 23:03:00,57.0,44.0,-100.00,NNW,330,1.0,4.0,62,-99.99,,,-99.99,,2013-05-15 04:03:00,